Time,TemperatureF,DewpointF,PressureIn,WindDirection,WindDirectionDegrees,WindSpeedMPH,WindSpeedGustMPH,Humidity,HourlyPrecipIn,Conditions,Clouds,dailyrainin,SolarRadiationWatts/m^2,SoftwareType,DateUTC
2013-09-14 00:02:00,51.0,48.0,-100.00,NNE,25,5.0,10.0,88,0.00,,,0.00,0.000000,,2013-09-14 08:02:00,
2013-09-14 00:12:00,51.0,48.0,-100.00,NNE,25,5.0,10.0,88,0.00,,,0.00,0.000000,,2013-09-14 08:12:00,
2013-09-14 00:21:00,51.0,48.0,-100.00,NNE,25,5.0,10.0,88,0.00,,,0.00,0.000000,,2013-09-14 08:21:00,
2013-09-14 00:52:00,51.0,49.0,-100.00,NNE,33,5.0,9.0,92,0.00,,,0.00,0.000000,,2013-09-14 08:52:00,
2013-09-14 01:02:00,51.0,49.0,-100.00,NNE,33,5.0,9.0,92,0.00,,,0.00,0.000000,,2013-09-14 09:02:00,
2013-09-14 01:12:00,51.0,49.0,-100.00,NNE,33,5.0,9.0,92,0.00,,,0.00,0.000000,,2013-09-14 09:12:00,
2013-09-14 01:21:00,51.0,49.0,-100.00,NNE,33,5.0,9.0,92,0.00,,,0.00,0.000000,,2013-09-14 09:21:00,
2013-09-14 01:53:00,51.0,49.0,-100.00,NNE,25,5.0,9.0,93,0.00,,,0.00,0.000000,,2013-09-14 09:53:00,
2013-09-14 02:03:00,51.0,49.0,-100.00,NNE,25,5.0,9.0,93,0.00,,,0.00,0.000000,,2013-09-14 10:03:00,
2013-09-14 02:12:00,51.0,49.0,-100.00,NNE,25,5.0,9.0,93,0.00,,,0.00,0.000000,,2013-09-14 10:12:00,
2013-09-14 02:23:00,51.0,49.0,-100.00,NNE,25,5.0,9.0,93,0.00,,,0.00,0.000000,,2013-09-14 10:23:00,
2013-09-14 02:53:00,50.0,48.0,-100.00,NNE,26,5.0,9.0,94,0.00,,,0.00,0.000000,,2013-09-14 10:53:00,
2013-09-14 03:02:00,50.0,48.0,-100.00,NNE,26,5.0,9.0,94,0.00,,,0.00,0.000000,,2013-09-14 11:02:00,
2013-09-14 03:12:00,50.0,48.0,-100.00,NNE,26,5.0,9.0,94,0.00,,,0.00,0.000000,,2013-09-14 11:12:00,
2013-09-14 03:22:00,50.0,48.0,-100.00,NNE,26,5.0,9.0,94,0.00,,,0.00,0.000000,,2013-09-14 11:22:00,
2013-09-14 03:52:00,49.0,47.0,-100.00,NNE,24,4.0,8.0,93,0.00,,,0.00,0.000000,,2013-09-14 11:52:00,
2013-09-14 04:02:00,49.0,47.0,-100.00,NNE,24,4.0,8.0,93,0.00,,,0.00,0.000000,,2013-09-14 12:02:00,
2013-09-14 04:12:00,49.0,47.0,-100.00,NNE,24,4.0,8.0,93,0.00,,,0.00,0.000000,,2013-09-14 12:12:00,
2013-09-14 04:22:00,49.0,47.0,-100.00,NNE,24,4.0,8.0,93,0.00,,,0.00,0.000000,,2013-09-14 12:22:00,
2013-09-14 04:52:00,49.0,47.0,-100.00,NE,38,3.0,7.0,94,0.00,,,0.00,0.000000,,2013-09-14 12:52:00,
2013-09-14 05:01:00,49.0,47.0,-100.00,NE,38,3.0,7.0,94,0.00,,,0.00,0.000000,,2013-09-14 13:01:00,
2013-09-14 05:12:00,49.0,47.0,-100.00,NE,38,3.0,7.0,94,0.00,,,0.00,0.000000,,2013-09-14 13:12:00,
2013-09-14 05:21:00,49.0,47.0,-100.00,NE,38,3.0,7.0,94,0.00,,,0.00,0.000000,,2013-09-14 13:21:00,
2013-09-14 05:52:00,47.0,46.0,-100.00,NE,50,1.0,6.0,95,0.00,,,0.00,0.000000,,2013-09-14 13:52:00,
2013-09-14 06:02:00,47.0,46.0,-100.00,NE,50,1.0,6.0,95,0.00,,,0.00,0.000000,,2013-09-14 14:02:00,
2013-09-14 06:11:00,47.0,46.0,-100.00,NE,50,1.0,6.0,95,0.00,,,0.00,0.000000,,2013-09-14 14:11:00,
2013-09-14 06:21:00,47.0,46.0,-100.00,NE,50,1.0,6.0,95,0.00,,,0.00,0.000000,,2013-09-14 14:21:00,
2013-09-14 06:52:00,46.0,45.0,-100.00,ENE,59,1.0,4.0,96,0.00,,,0.00,0.000000,,2013-09-14 14:52:00,
2013-09-14 07:02:00,46.0,45.0,-100.00,ENE,59,1.0,4.0,96,0.00,,,0.00,0.000000,,2013-09-14 15:02:00,
2013-09-14 07:11:00,46.0,45.0,-100.00,ENE,59,1.0,4.0,96,0.00,,,0.00,0.000000,,2013-09-14 15:11:00,
2013-09-14 07:22:00,46.0,45.0,-100.00,ENE,59,1.0,4.0,96,0.00,,,0.00,0.000000,,2013-09-14 15:22:00,
2013-09-14 07:53:00,48.0,47.0,-100.00,NE,44,2.0,7.0,97,0.00,,,0.00,0.000000,,2013-09-14 15:53:00,
2013-09-14 08:03:00,48.0,47.0,-100.00,NE,44,2.0,7.0,97,0.00,,,0.00,0.000000,,2013-09-14 16:03:00,
2013-09-14 08:13:00,48.0,47.0,-100.00,NE,44,2.0,7.0,97,0.00,,,0.00,0.000000,,2013-09-14 16:13:00,
2013-09-14 08:23:00,48.0,47.0,-100.00,NE,44,2.0,7.0,97,0.00,,,0.00,0.000000,,2013-09-14 16:23:00,
2013-09-14 08:54:00,48.0,47.0,-100.00,NNE,16,0.0,6.0,96,0.00,,,0.00,10.000000,,2013-09-14 16:54:00,
2013-09-14 09:03:00,48.0,47.0,-100.00,NNE,16,0.0,6.0,96,0.00,,,0.00,10.000000,,2013-09-14 17:03:00,
2013-09-14 09:11:00,48.0,47.0,-100.00,NNE,16,0.0,6.0,96,0.00,,,0.00,10.000000,,2013-09-14 17:11:00,
2013-09-14 09:23:00,48.0,47.0,-100.00,NNE,16,0.0,6.0,96,0.00,,,0.00,10.000000,,2013-09-14 17:23:00,
2013-09-14 09:54:00,48.0,47.0,-100.00,ENE,69,1.0,4.0,97,0.00,,,0.00,33.000000,,2013-09-14 17:54:00,
2013-09-14 10:02:00,48.0,47.0,-100.00,ENE,69,1.0,4.0,97,0.00,,,0.00,33.000000,,2013-09-14 18:02:00,
2013-09-14 10:12:00,48.0,47.0,-100.00,ENE,69,1.0,4.0,97,0.00,,,0.00,33.000000,,2013-09-14 18:12:00,
2013-09-14 10:21:00,48.0,47.0,-100.00,ENE,69,1.0,4.0,97,0.00,,,0.00,33.000000,,2013-09-14 18:21:00,
2013-09-14 10:52:00,53.0,47.0,-100.00,NNE,27,5.0,13.0,81,0.00,,,0.00,115.000000,,2013-09-14 18:52:00,
2013-09-14 11:02:00,53.0,47.0,-100.00,NNE,27,5.0,13.0,81,0.00,,,0.00,115.000000,,2013-09-14 19:02:00,
2013-09-14 11:11:00,53.0,47.0,-100.00,NNE,27,5.0,13.0,81,0.00,,,0.00,115.000000,,2013-09-14 19:11:00,
2013-09-14 11:22:00,53.0,47.0,-100.00,NNE,27,5.0,13.0,81,0.00,,,0.00,115.000000,,2013-09-14 19:22:00,
2013-09-14 11:52:00,57.0,47.0,-100.00,NE,35,5.0,9.0,68,0.00,,,0.00,245.000000,,2013-09-14 19:52:00,
2013-09-14 12:02:00,57.0,47.0,-100.00,NE,35,5.0,9.0,68,0.00,,,0.00,245.000000,,2013-09-14 20:02:00,
2013-09-14 12:12:00,57.0,47.0,-100.00,NE,35,5.0,9.0,68,0.00,,,0.00,245.000000,,2013-09-14 20:12:00,
2013-09-14 12:22:00,57.0,47.0,-100.00,NE,35,5.0,9.0,68,0.00,,,0.00,245.000000,,2013-09-14 20:22:00,
2013-09-14 12:52:00,61.0,47.0,-100.00,NNE,19,5.0,9.0,60,0.00,,,0.00,482.000000,,2013-09-14 20:52:00,
2013-09-14 13:02:00,61.0,47.0,-100.00,NNE,19,5.0,9.0,60,0.00,,,0.00,482.000000,,2013-09-14 21:02:00,
2013-09-14 13:11:00,61.0,47.0,-100.00,NNE,19,5.0,9.0,60,0.00,,,0.00,482.000000,,2013-09-14 21:11:00,
2013-09-14 13:22:00,61.0,47.0,-100.00,NNE,19,5.0,9.0,60,0.00,,,0.00,482.000000,,2013-09-14 21:22:00,
2013-09-14 13:54:00,63.0,46.0,-100.00,NNE,20,5.0,11.0,54,0.00,,,0.00,523.000000,,2013-09-14 21:54:00,
2013-09-14 14:04:00,63.0,46.0,-100.00,NNE,20,5.0,11.0,54,0.00,,,0.00,523.000000,,2013-09-14 22:04:00,
2013-09-14 14:13:00,63.0,46.0,-100.00,NNE,20,5.0,11.0,54,0.00,,,0.00,523.000000,,2013-09-14 22:13:00,
2013-09-14 14:24:00,63.0,46.0,-100.00,NNE,20,5.0,11.0,54,0.00,,,0.00,523.000000,,2013-09-14 22:24:00,
2013-09-14 14:53:00,65.0,46.0,-100.00,NE,44,3.0,9.0,51,0.00,,,0.00,532.000000,,2013-09-14 22:53:00,
2013-09-14 15:03:00,65.0,46.0,-100.00,NE,44,3.0,9.0,51,0.00,,,0.00,532.000000,,2013-09-14 23:03:00,
2013-09-14 15:11:00,65.0,46.0,-100.00,NE,44,3.0,9.0,51,0.00,,,0.00,532.000000,,2013-09-14 23:11:00,
2013-09-14 15:23:00,65.0,46.0,-100.00,NE,44,3.0,9.0,51,0.00,,,0.00,532.000000,,2013-09-14 23:23:00,
2013-09-14 15:53:00,66.0,47.0,-100.00,NE,39,5.0,10.0,51,0.00,,,0.00,489.000000,,2013-09-14 23:53:00,
2013-09-14 16:02:00,66.0,47.0,-100.00,NE,39,5.0,10.0,51,0.00,,,0.00,489.000000,,2013-09-15 00:02:00,
2013-09-14 16:12:00,66.0,47.0,-100.00,NE,39,5.0,10.0,51,0.00,,,0.00,489.000000,,2013-09-15 00:12:00,
2013-09-14 16:22:00,66.0,47.0,-100.00,NE,39,5.0,10.0,51,0.00,,,0.00,489.000000,,2013-09-15 00:22:00,
2013-09-14 16:53:00,66.0,45.0,-100.00,North,5,4.0,13.0,46,0.00,,,0.00,359.000000,,2013-09-15 00:53:00,
2013-09-14 17:01:00,66.0,45.0,-100.00,North,5,4.0,13.0,46,0.00,,,0.00,359.000000,,2013-09-15 01:01:00,
2013-09-14 17:11:00,66.0,45.0,-100.00,North,5,4.0,13.0,46,0.00,,,0.00,359.000000,,2013-09-15 01:11:00,
2013-09-14 17:22:00,66.0,45.0,-100.00,North,5,4.0,13.0,46,0.00,,,0.00,359.000000,,2013-09-15 01:22:00,
2013-09-14 17:52:00,66.0,43.0,-100.00,NE,40,5.0,12.0,44,0.00,,,0.00,359.000000,,2013-09-15 01:52:00,
2013-09-14 18:02:00,66.0,43.0,-100.00,NE,40,5.0,12.0,44,0.00,,,0.00,359.000000,,2013-09-15 02:02:00,
2013-09-14 18:12:00,66.0,43.0,-100.00,NE,40,5.0,12.0,44,0.00,,,0.00,359.000000,,2013-09-15 02:12:00,
2013-09-14 18:22:00,66.0,43.0,-100.00,NE,40,5.0,12.0,44,0.00,,,0.00,359.000000,,2013-09-15 02:22:00,
2013-09-14 18:52:00,66.0,43.0,-100.00,NNE,24,4.0,9.0,43,0.00,,,0.00,249.000000,,2013-09-15 02:52:00,
2013-09-14 19:02:00,66.0,43.0,-100.00,NNE,24,4.0,9.0,43,0.00,,,0.00,249.000000,,2013-09-15 03:02:00,
2013-09-14 19:11:00,66.0,43.0,-100.00,NNE,24,4.0,9.0,43,0.00,,,0.00,249.000000,,2013-09-15 03:11:00,
2013-09-14 19:21:00,66.0,43.0,-100.00,NNE,24,4.0,9.0,43,0.00,,,0.00,249.000000,,2013-09-15 03:21:00,
2013-09-14 19:55:00,63.0,45.0,-100.00,NE,41,4.0,9.0,51,0.00,,,0.00,122.000000,,2013-09-15 03:55:00,
2013-09-14 20:02:00,-999.0,-99.9,-100.00,NE,41,4.0,9.0,-999,-99.99,,,-99.99,122.000000,,2013-09-15 04:02:00,
2013-09-14 20:13:00,63.0,45.0,-100.00,NE,41,4.0,9.0,51,0.00,,,0.00,122.000000,,2013-09-15 04:13:00,
2013-09-14 20:24:00,63.0,45.0,-100.00,NE,41,4.0,9.0,51,0.00,,,0.00,122.000000,,2013-09-15 04:24:00,
2013-09-14 20:54:00,55.0,48.0,-100.00,NNE,23,1.0,7.0,76,0.00,,,0.00,19.000000,,2013-09-15 04:54:00,
2013-09-14 21:03:00,55.0,48.0,-100.00,NNE,23,1.0,7.0,76,0.00,,,0.00,19.000000,,2013-09-15 05:03:00,
2013-09-14 21:13:00,55.0,48.0,-100.00,NNE,23,1.0,7.0,76,0.00,,,0.00,19.000000,,2013-09-15 05:13:00,
2013-09-14 21:22:00,55.0,48.0,-100.00,NNE,23,1.0,7.0,76,0.00,,,0.00,19.000000,,2013-09-15 05:22:00,
2013-09-14 21:52:00,51.0,48.0,-100.00,NNE,26,1.0,3.0,89,0.00,,,0.00,1.000000,,2013-09-15 05:52:00,
2013-09-14 22:02:00,51.0,48.0,-100.00,NNE,26,1.0,3.0,89,0.00,,,0.00,1.000000,,2013-09-15 06:02:00,
2013-09-14 22:12:00,51.0,48.0,-100.00,NNE,26,1.0,3.0,89,0.00,,,0.00,1.000000,,2013-09-15 06:12:00,
2013-09-14 22:21:00,51.0,48.0,-100.00,NNE,26,1.0,3.0,89,0.00,,,0.00,1.000000,,2013-09-15 06:21:00,
2013-09-14 22:52:00,48.0,46.0,-100.00,NE,49,2.0,3.0,92,0.00,,,0.00,0.000000,,2013-09-15 06:52:00,
2013-09-14 23:02:00,48.0,46.0,-100.00,NE,49,2.0,3.0,92,0.00,,,0.00,0.000000,,2013-09-15 07:02:00,
2013-09-14 23:11:00,48.0,46.0,-100.00,NE,49,2.0,3.0,92,0.00,,,0.00,0.000000,,2013-09-15 07:11:00,
2013-09-14 23:22:00,48.0,46.0,-100.00,NE,49,2.0,3.0,92,0.00,,,0.00,0.000000,,2013-09-15 07:22:00,
2013-09-14 23:52:00,46.0,44.0,-100.00,NNE,28,1.0,3.0,94,0.00,,,0.00,0.000000,,2013-09-15 07:52:00,